Showing default

OPS 9432 (DSCS 2-2), 5588

Orbit data source: Space-Track

OPS 9432 (DSCS 2-2), 5588 is an American payload satellite in GEO that was launched on Wed, 03 Nov 1971 UTC via a TITAN IIIC launch vehicle from the Air Force Eastern Test Range (AFETR). Payloads include a variety of satellites, spacecraft, and rockets equipped with specific instruments for various scientific and technological missions. These include communications satellites like Starlink; space stations such as the ISS; scientific satellites like the Hubble; Earth observation satellites from companies like Planet Labs, Umbra, and HawkEye 360; GPS; miniature CubeSats for education and research; and military/defense satellites.

Not visible in the next 10 days
OPS 9432 (DSCS 2-2) details
Identifier
5588, 1971-095B
Orbit
GEO
Last TLE update15 hours ago
Origin
Flag of USSAMSO/DCA (US)
ManufacturerTRW
MissionNon-operational Defense Communications
Bus & MotorDSCS II, Unknown motor
Mass526 kg wet, ~500 kg dry
Launch date (UTC)
1971-11-03 (53 years ago)
Launch vehicle
TITAN IIIC
Launch site
Air Force Eastern Test Range (AFETR)
Object type
Payload
Rocket body
Debris
Shape & HBRCyl, Unknown HBR
Radar Cross Section10.695 m², Large (>1 m²)

Expand to show TLE details & history

TLE from 15 hours ago
0 OPS 9432 (DSCS 2-2)
1 05588U 71095B   24336.85813338 -.00000022  00000-0  00000-0 0  9990
2 05588   2.9991 269.6135 0003521  29.2427 149.8266  1.00397477 41725
Epoch: 2024-12-01T20:35Z
Definitive object data (Epoch: 2024-12-01T20:35:42.724Z)
Latitude0.0679°
Longitude68.54849°
Altitude35,763.723 km
Speed3.075 km/s
True Right ascension05h 54m 40s
True Declination0° 04' 04"
Sunlit
Object was in daylight at TLE epoch
Visualization TLE readout
Latitude1.99658°
Longitude-68.7666°
Altitude35,736.178 km
Speed3.077 km/s
Apparent Right ascension20h 47m 57s
Apparent Declination-3° 10' 30"
Sunlit
Object is in daylight
Visualization observer readout
Local Sidereal Time09:09:50
Azimuth9.086° NNE
Elevation-52.926°
Doppler factor1
Orbital elements
Apogee altitude35,767.297 km
Perigee altitude35,737.628 km
Semi-major axis42,130.6 km
Eccentricity0.0003521
Inclination2.9991°
RAAN269.6135°
Arg. of periapsis29.2427°
True anomaly149.84687°
Mean anomaly149.8266°
Eccentric anomaly149.83674°
Mean motion0.25098 °/min
BSTARUnknown
Orbital period1434.35 mins
Loading historical data...
5588 neighbors
Authenticating...
Loading maneuver chart data...
Loading historical data...
Loading historical data...
Loading historical data...
Loading historical data...
Loading historical data...
Loading historical data...
Loading historical data...
Other satellites on launch #95 in the year 1971 (1971-11-03 UTC)

OPS 9432 (DSCS 2-2) Visibility forecast

Observer location: undefined°, undefined

OPS 9432 (DSCS 2-2) is not visible in the next 10 days
Span
Click to sort rows by Start time (UTC) header in descending order
Start Az.
Max El. time (UTC)
Max El. Az.
Max El.
End time (UTC)
End Az.
|